| time (UTC) | temp F | wind direction | speed knots | gust knots | rain 1hr in | rain 24hr in | rain mn in | humidity % | barometer mb |
| 20260503021934 | 48 | 221 | 0.9 | 2.6 | 0.00 | 0.00 | 0.00 | 61 | 1013.2 |
| 20260503021427 | 48 | 221 | 1.7 | 2.6 | 0.00 | 0.00 | 0.00 | 59 | 1013.2 |
| 20260503020920 | 48 | 207 | 1.7 | 3.5 | 0.00 | 0.00 | 0.00 | 59 | 1013.2 |
| 20260503020420 | 48 | 200 | 0.9 | 3.5 | 0.00 | 0.00 | 0.00 | 59 | 1013.0 |
| 20260503015919 | 48 | 215 | 0.9 | 1.7 | 0.00 | 0.00 | 0.00 | 58 | 1013.0 |
| 20260503015420 | 49 | 215 | 0.0 | 1.7 | 0.00 | 0.00 | 0.00 | 57 | 1013.0 |
| 20260503014919 | 49 | 215 | 0.0 | 0.0 | 0.00 | 0.00 | 0.00 | 56 | 1012.9 |
| 20260503014419 | 49 | 215 | 0.0 | 2.6 | 0.00 | 0.00 | 0.00 | 55 | 1012.9 |
| 20260503013919 | 50 | 215 | 0.9 | 2.6 | 0.00 | 0.00 | 0.00 | 55 | 1012.9 |
| 20260503013420 | 50 | 215 | 0.9 | 2.6 | 0.00 | 0.00 | 0.00 | 54 | 1012.9 |
| 20260503012919 | 50 | 214 | 1.7 | 2.6 | 0.00 | 0.00 | 0.00 | 53 | 1012.9 |
| 20260503012420 | 51 | 213 | 0.9 | 2.6 | 0.00 | 0.00 | 0.00 | 53 | 1012.9 |
| 20260503011914 | 51 | 213 | 0.9 | 2.6 | 0.00 | 0.00 | 0.00 | 52 | 1012.9 |
| 20260503011624 | 51 | 213 | 1.7 | 3.5 | 0.00 | 0.00 | 0.00 | 51 | 1012.9 |
| 20260503010851 | 51 | 213 | 1.7 | 3.5 | 0.00 | 0.00 | 0.00 | 50 | 1012.9 |
| 20260503010347 | 52 | 223 | 0.9 | 2.6 | 0.00 | 0.00 | 0.00 | 49 | 1012.9 |
| 20260503005841 | 52 | 230 | 0.9 | 2.6 | 0.00 | 0.00 | 0.00 | 49 | 1012.9 |
| 20260503005333 | 53 | 230 | 1.7 | 4.3 | 0.00 | 0.00 | 0.00 | 47 | 1012.9 |
| 20260503004828 | 53 | 222 | 2.6 | 6.1 | 0.00 | 0.00 | 0.00 | 46 | 1012.9 |
| 20260503004322 | 53 | 232 | 2.6 | 6.1 | 0.00 | 0.00 | 0.00 | 45 | 1012.9 |
| 20260503003816 | 53 | 239 | 2.6 | 6.1 | 0.00 | 0.00 | 0.00 | 45 | 1012.9 |
| 20260503003305 | 54 | 222 | 2.6 | 6.1 | 0.00 | 0.00 | 0.00 | 44 | 1012.9 |
| 20260503002803 | 54 | 238 | 2.6 | 6.1 | 0.00 | 0.00 | 0.00 | 44 | 1012.9 |
| 20260503002258 | 54 | 240 | 2.6 | 6.1 | 0.00 | 0.00 | 0.00 | 43 | 1012.9 |
| 20260503001752 | 54 | 250 | 2.6 | 5.2 | 0.00 | 0.00 | 0.00 | 43 | 1012.9 |
| 20260503001246 | 55 | 234 | 2.6 | 7.8 | 0.00 | 0.00 | 0.00 | 42 | 1012.9 |
| 20260503000736 | 55 | 285 | 3.5 | 7.8 | 0.00 | 0.00 | 0.00 | 42 | 1012.9 |
| 20260503000233 | 55 | 216 | 2.6 | 7.8 | 0.00 | 0.00 | 0.00 | 44 | 1012.9 |
| 20260502235727 | 55 | 227 | 2.6 | 5.2 | 0.00 | 0.00 | 0.00 | 43 | 1012.9 |
| 20260502235221 | 54 | 229 | 1.7 | 4.3 | 0.00 | 0.00 | 0.00 | 43 | 1012.9 |
| 20260502234715 | 54 | 237 | 2.6 | 6.1 | 0.00 | 0.00 | 0.00 | 43 | 1013.0 |
| 20260502234206 | 55 | 257 | 1.7 | 6.1 | 0.00 | 0.00 | 0.00 | 42 | 1013.0 |
| 20260502233703 | 55 | 233 | 0.9 | 3.5 | 0.00 | 0.00 | 0.00 | 44 | 1013.0 |
| 20260502233201 | 55 | 268 | 1.7 | 4.3 | 0.00 | 0.00 | 0.00 | 45 | 1013.1 |
| 20260502232912 | 54 | 271 | 2.6 | 7.0 | 0.00 | 0.00 | 0.00 | 44 | 1013.1 |
| 20260502232147 | 54 | 225 | 3.5 | 7.0 | 0.00 | 0.00 | 0.00 | 43 | 1013.1 |
| 20260502231640 | 54 | 274 | 3.5 | 7.0 | 0.00 | 0.00 | 0.00 | 43 | 1013.3 |
| 20260502231135 | 55 | 300 | 3.5 | 7.0 | 0.00 | 0.00 | 0.00 | 43 | 1013.3 |
| 20260502230624 | 55 | 268 | 2.6 | 9.6 | 0.00 | 0.00 | 0.00 | 42 | 1013.3 |
| 20260502230122 | 55 | 5 | 2.6 | 9.6 | 0.00 | 0.00 | 0.00 | 42 | 1013.3 |
| 20260502225110 | 55 | 283 | 2.6 | 7.0 | 0.00 | 0.00 | 0.00 | 42 | 1013.3 |
| 20260502224826 | 56 | 271 | 2.6 | 7.0 | 0.00 | 0.00 | 0.00 | 43 | 1013.4 |
| 20260502224052 | 56 | 250 | 2.6 | 7.0 | 0.00 | 0.00 | 0.00 | 42 | 1013.4 |
| 20260502223550 | 55 | 337 | 3.5 | 11.3 | 0.00 | 0.00 | 0.00 | 42 | 1013.4 |
| 20260502223044 | 55 | 355 | 3.5 | 11.3 | 0.00 | 0.00 | 0.00 | 42 | 1013.4 |
| 20260502222538 | 55 | 290 | 3.5 | 8.7 | 0.00 | 0.00 | 0.00 | 41 | 1013.4 |
| 20260502222033 | 56 | 234 | 3.5 | 8.7 | 0.00 | 0.00 | 0.00 | 43 | 1013.4 |
| 20260502221527 | 55 | 0 | 3.5 | 7.8 | 0.00 | 0.00 | 0.00 | 42 | 1013.4 |
| 20260502221022 | 55 | 221 | 3.5 | 7.8 | 0.00 | 0.00 | 0.00 | 43 | 1013.4 |
| 20260502220512 | 54 | 250 | 2.6 | 7.8 | 0.00 | 0.00 | 0.00 | 43 | 1013.4 |
| 20260502220005 | 55 | 351 | 2.6 | 6.1 | 0.00 | 0.00 | 0.00 | 44 | 1013.4 |
| 20260502215504 | 55 | 293 | 2.6 | 8.7 | 0.00 | 0.00 | 0.00 | 44 | 1013.4 |
| 20260502215005 | 55 | 265 | 3.5 | 9.6 | 0.00 | 0.00 | 0.00 | 42 | 1013.4 |
| 20260502214505 | 55 | 317 | 3.5 | 9.6 | 0.00 | 0.00 | 0.00 | 43 | 1013.5 |
| 20260502214004 | 55 | 292 | 3.5 | 7.8 | 0.00 | 0.00 | 0.00 | 43 | 1013.5 |
| 20260502213505 | 55 | 279 | 3.5 | 9.6 | 0.00 | 0.00 | 0.00 | 41 | 1013.5 |
| 20260502213004 | 55 | 300 | 2.6 | 9.6 | 0.00 | 0.00 | 0.00 | 42 | 1013.4 |
| 20260502212726 | 55 | 329 | 2.6 | 7.0 | 0.00 | 0.00 | 0.00 | 44 | 1013.4 |
| 20260502212004 | 54 | 13 | 2.6 | 7.0 | 0.00 | 0.00 | 0.00 | 42 | 1013.4 |
| 20260502211950 | 54 | 275 | 2.6 | 7.8 | 0.00 | 0.00 | 0.00 | 42 | 1013.5 |
| 20260502211000 | 54 | 355 | 2.6 | 7.8 | 0.00 | 0.00 | 0.00 | 42 | 1013.5 |
| 20260502210447 | 54 | 5 | 1.7 | 6.1 | 0.00 | 0.00 | 0.00 | 42 | 1013.7 |
| 20260502205934 | 54 | 328 | 2.6 | 6.1 | 0.00 | 0.00 | 0.00 | 42 | 1013.7 |
| 20260502205426 | 54 | 338 | 1.7 | 6.1 | 0.00 | 0.00 | 0.00 | 43 | 1013.7 |
| 20260502204918 | 54 | 350 | 2.6 | 9.6 | 0.00 | 0.00 | 0.00 | 44 | 1013.9 |
| 20260502204411 | 54 | 270 | 3.5 | 9.6 | 0.00 | 0.00 | 0.00 | 41 | 1013.9 |
| 20260502203905 | 54 | 319 | 3.5 | 8.7 | 0.00 | 0.00 | 0.00 | 42 | 1013.9 |
| 20260502203400 | 55 | 10 | 3.5 | 8.7 | 0.00 | 0.00 | 0.00 | 41 | 1014.0 |
| 20260502202853 | 55 | 9 | 3.5 | 7.0 | 0.00 | 0.00 | 0.00 | 41 | 1014.0 |
| 20260502202348 | 55 | 75 | 2.6 | 7.0 | 0.00 | 0.00 | 0.00 | 40 | 1014.0 |
| 20260502201836 | 54 | 348 | 2.6 | 6.1 | 0.00 | 0.00 | 0.00 | 44 | 1014.2 |
| 20260502201330 | 54 | 63 | 3.5 | 7.0 | 0.00 | 0.00 | 0.00 | 42 | 1014.2 |
| 20260502200829 | 54 | 284 | 4.3 | 7.8 | 0.00 | 0.00 | 0.00 | 41 | 1014.2 |
| 20260502200324 | 54 | 274 | 3.5 | 7.8 | 0.00 | 0.00 | 0.00 | 42 | 1014.4 |
| 20260502195817 | 53 | 293 | 3.5 | 7.8 | 0.00 | 0.00 | 0.00 | 41 | 1014.4 |
| 20260502195312 | 54 | 13 | 2.6 | 7.8 | 0.00 | 0.00 | 0.00 | 42 | 1014.4 |
| 20260502194801 | 54 | 286 | 3.5 | 9.6 | 0.00 | 0.00 | 0.00 | 44 | 1014.6 |
| 20260502194258 | 54 | 237 | 4.3 | 9.6 | 0.00 | 0.00 | 0.00 | 41 | 1014.6 |
| 20260502193752 | 54 | 250 | 4.3 | 7.8 | 0.00 | 0.00 | 0.00 | 42 | 1014.6 |
| 20260502193513 | 54 | 257 | 3.5 | 7.8 | 0.00 | 0.00 | 0.00 | 42 | 1014.8 |
| 20260502192736 | 53 | 291 | 4.3 | 10.4 | 0.00 | 0.00 | 0.00 | 41 | 1014.8 |
| 20260502192230 | 53 | 340 | 4.3 | 10.4 | 0.00 | 0.00 | 0.00 | 42 | 1014.8 |
| 20260502191728 | 53 | 311 | 3.5 | 7.8 | 0.00 | 0.00 | 0.00 | 42 | 1015.0 |
| 20260502191222 | 53 | 233 | 2.6 | 7.8 | 0.00 | 0.00 | 0.00 | 41 | 1015.0 |
| 20260502190715 | 53 | 250 | 2.6 | 7.8 | 0.00 | 0.00 | 0.00 | 41 | 1015.0 |
| 20260502190211 | 53 | 265 | 3.5 | 7.0 | 0.00 | 0.00 | 0.00 | 41 | 1015.2 |
| 20260502185705 | 52 | 232 | 2.6 | 6.1 | 0.00 | 0.00 | 0.00 | 43 | 1015.2 |
| 20260502185159 | 52 | 279 | 2.6 | 8.7 | 0.00 | 0.00 | 0.00 | 44 | 1015.2 |
| 20260502184653 | 52 | 0 | 2.6 | 8.7 | 0.00 | 0.00 | 0.00 | 43 | 1015.3 |
| 20260502184146 | 52 | 321 | 2.6 | 7.8 | 0.00 | 0.00 | 0.00 | 43 | 1015.3 |
| 20260502183640 | 52 | 331 | 3.5 | 7.8 | 0.00 | 0.00 | 0.00 | 45 | 1015.3 |
| 20260502183138 | 51 | 330 | 2.6 | 7.8 | 0.00 | 0.00 | 0.00 | 47 | 1015.3 |
| 20260502182858 | 52 | 221 | 3.5 | 7.8 | 0.00 | 0.00 | 0.00 | 44 | 1015.3 |
| 20260502182138 | 52 | 226 | 2.6 | 7.8 | 0.00 | 0.00 | 0.00 | 43 | 1015.3 |
| 20260502182116 | 52 | 11 | 2.6 | 7.0 | 0.00 | 0.00 | 0.00 | 43 | 1015.6 |
| 20260502181402 | 51 | 313 | 3.5 | 8.7 | 0.00 | 0.00 | 0.00 | 44 | 1015.6 |
| 20260502180638 | 51 | 351 | 4.3 | 8.7 | 0.00 | 0.00 | 0.00 | 44 | 1015.6 |
| 20260502180138 | 51 | 9 | 3.5 | 12.2 | 0.00 | 0.00 | 0.00 | 44 | 1015.6 |
| 20260502170400 | 50 | 252 | 3.5 | 9.6 | 0.00 | 0.00 | 0.00 | 46 | 1016.2 |
| 20260502164138 | 49 | 285 | 2.6 | 10.4 | 0.00 | 0.00 | 0.00 | 45 | 1016.2 |
| 20260502163636 | 50 | 270 | 3.5 | 9.6 | 0.00 | 0.00 | 0.00 | 47 | 1016.2 |
| 20260502163130 | 50 | 9 | 3.5 | 9.6 | 0.00 | 0.00 | 0.00 | 47 | 1016.4 |
| 20260502162619 | 50 | 47 | 2.6 | 8.7 | 0.00 | 0.00 | 0.00 | 47 | 1016.4 |
| 20260502162122 | 49 | 150 | 2.6 | 8.7 | 0.00 | 0.00 | 0.00 | 50 | 1016.4 |
| 20260502161612 | 49 | 310 | 2.6 | 6.1 | 0.00 | 0.00 | 0.00 | 47 | 1016.5 |
| 20260502161106 | 49 | 292 | 2.6 | 6.1 | 0.00 | 0.00 | 0.00 | 48 | 1016.5 |
| 20260502160602 | 49 | 13 | 2.6 | 8.7 | 0.00 | 0.00 | 0.00 | 48 | 1016.5 |
| 20260502160313 | 50 | 32 | 3.5 | 8.7 | 0.00 | 0.00 | 0.00 | 46 | 1016.5 |
| 20260502152007 | 49 | 54 | 1.7 | 7.0 | 0.00 | 0.00 | 0.00 | 50 | 1016.6 |
| 20260502151500 | 48 | 34 | 1.7 | 7.0 | 0.00 | 0.00 | 0.00 | 48 | 1016.6 |
| 20260502151216 | 48 | 39 | 1.7 | 4.3 | 0.00 | 0.00 | 0.00 | 49 | 1016.6 |
| 20260502150449 | 48 | 54 | 1.7 | 4.3 | 0.00 | 0.00 | 0.00 | 51 | 1016.6 |
| 20260502130728 | 41 | 342 | 0.9 | 2.6 | 0.00 | 0.00 | 0.00 | 63 | 1016.3 |
| 20260502130214 | 41 | 329 | 0.9 | 2.6 | 0.00 | 0.00 | 0.00 | 65 | 1016.2 |
| 20260502123716 | 38 | 125 | 0.0 | 1.7 | 0.00 | 0.00 | 0.00 | 73 | 1016.2 |
| 20260502123214 | 38 | 125 | 0.0 | 1.7 | 0.00 | 0.00 | 0.00 | 75 | 1016.2 |
| 20260502122715 | 37 | 126 | 0.0 | 1.7 | 0.00 | 0.00 | 0.00 | 77 | 1016.2 |
| 20260502122216 | 37 | 65 | 0.0 | 0.9 | 0.00 | 0.00 | 0.00 | 79 | 1016.2 |
| 20260502121708 | 36 | 65 | 0.0 | 1.7 | 0.00 | 0.00 | 0.00 | 80 | 1016.2 |
| 20260502121200 | 36 | 65 | 0.0 | 1.7 | 0.00 | 0.00 | 0.00 | 81 | 1016.2 |
| 20260502120650 | 35 | 65 | 0.0 | 0.0 | 0.00 | 0.00 | 0.00 | 83 | 1016.2 |
| 20260502120150 | 35 | 65 | 0.0 | 0.0 | 0.00 | 0.00 | 0.00 | 84 | 1016.0 |
| 20260502115644 | 34 | 65 | 0.0 | 0.0 | 0.00 | 0.00 | 0.00 | 85 | 1016.0 |
| 20260502115136 | 34 | 65 | 0.0 | 0.0 | 0.00 | 0.00 | 0.00 | 86 | 1016.0 |
| 20260502114632 | 33 | 65 | 0.0 | 0.0 | 0.00 | 0.00 | 0.00 | 87 | 1015.7 |
| 20260502114121 | 32 | 65 | 0.0 | 0.0 | 0.00 | 0.00 | 0.00 | 86 | 1015.7 |
| 20260502113618 | 32 | 65 | 0.0 | 0.0 | 0.00 | 0.00 | 0.00 | 86 | 1015.7 |
| 20260502113112 | 31 | 80 | 0.0 | 0.0 | 0.00 | 0.00 | 0.00 | 86 | 1015.6 |
| 20260502112606 | 31 | 82 | 0.0 | 0.0 | 0.00 | 0.00 | 0.00 | 86 | 1015.6 |
| 20260502112101 | 31 | 84 | 0.0 | 0.0 | 0.00 | 0.00 | 0.00 | 86 | 1015.6 |
| 20260502111551 | 31 | 66 | 0.0 | 0.0 | 0.00 | 0.00 | 0.00 | 85 | 1015.6 |
| 20260502111049 | 31 | 71 | 0.0 | 0.0 | 0.00 | 0.00 | 0.00 | 85 | 1015.6 |
| 20260502110543 | 31 | 71 | 0.0 | 0.0 | 0.00 | 0.00 | 0.00 | 85 | 1015.6 |
| 20260502110036 | 31 | 73 | 0.0 | 0.0 | 0.00 | 0.00 | 0.00 | 85 | 1015.6 |
| 20260502105530 | 31 | 73 | 0.0 | 0.0 | 0.00 | 0.00 | 0.00 | 84 | 1015.6 |
| 20260502105021 | 31 | 73 | 0.0 | 0.0 | 0.00 | 0.00 | 0.00 | 84 | 1015.6 |
| 20260502104518 | 31 | 74 | 0.0 | 0.0 | 0.00 | 0.00 | 0.00 | 85 | 1015.5 |
| 20260502104014 | 31 | 73 | 0.0 | 0.0 | 0.00 | 0.00 | 0.00 | 84 | 1015.5 |
| 20260502103727 | 31 | 73 | 0.0 | 0.0 | 0.00 | 0.00 | 0.00 | 84 | 1015.5 |
| 20260502103001 | 31 | 73 | 0.0 | 0.0 | 0.00 | 0.00 | 0.00 | 84 | 1015.5 |
| 20260502102453 | 31 | 73 | 0.0 | 0.0 | 0.00 | 0.00 | 0.00 | 84 | 1015.5 |
| 20260502101948 | 31 | 74 | 0.0 | 0.0 | 0.00 | 0.00 | 0.00 | 84 | 1015.5 |
| 20260502101438 | 31 | 74 | 0.0 | 0.0 | 0.00 | 0.00 | 0.00 | 84 | 1015.5 |
| 20260502101157 | 31 | 74 | 0.0 | 0.0 | 0.00 | 0.00 | 0.00 | 84 | 1015.5 |
| 20260502100431 | 31 | 75 | 0.0 | 0.0 | 0.00 | 0.00 | 0.00 | 84 | 1015.5 |
| 20260502091331 | 32 | 69 | 0.0 | 0.0 | 0.00 | 0.00 | 0.00 | 84 | 1015.2 |
| 20260502090824 | 32 | 69 | 0.0 | 0.0 | 0.00 | 0.00 | 0.00 | 84 | 1015.2 |
| 20260502090319 | 33 | 69 | 0.0 | 0.0 | 0.00 | 0.00 | 0.00 | 83 | 1015.3 |
| 20260502071415 | 34 | 67 | 0.0 | 1.7 | 0.00 | 0.00 | 0.00 | 81 | 1015.5 |
| 20260502070641 | 34 | 67 | 0.0 | 0.9 | 0.00 | 0.00 | 0.00 | 81 | 1015.5 |
| 20260502070402 | 34 | 67 | 0.0 | 0.0 | 0.00 | 0.00 | 0.00 | 81 | 1015.6 |
| 20260502065627 | 34 | 67 | 0.0 | 0.0 | 0.00 | 0.00 | 0.00 | 80 | 1015.6 |
| 20260502065123 | 34 | 67 | 0.0 | 0.0 | 0.00 | 0.00 | 0.00 | 80 | 1015.6 |
| 20260502064619 | 35 | 67 | 0.0 | 0.0 | 0.00 | 0.00 | 0.00 | 80 | 1015.7 |
| 20260502064111 | 35 | 67 | 0.0 | 0.0 | 0.00 | 0.00 | 0.00 | 80 | 1015.7 |
| 20260502063607 | 35 | 67 | 0.0 | 0.0 | 0.00 | 0.00 | 0.00 | 79 | 1015.7 |
| 20260502063056 | 35 | 66 | 0.0 | 0.0 | 0.00 | 0.00 | 0.00 | 79 | 1015.7 |
| 20260502062554 | 35 | 66 | 0.0 | 0.0 | 0.00 | 0.00 | 0.00 | 79 | 1015.7 |
| 20260502062049 | 35 | 66 | 0.0 | 0.0 | 0.00 | 0.00 | 0.00 | 79 | 1015.7 |
| 20260502061807 | 35 | 66 | 0.0 | 0.0 | 0.00 | 0.00 | 0.00 | 79 | 1015.8 |
| 20260502061035 | 35 | 66 | 0.0 | 0.0 | 0.00 | 0.00 | 0.00 | 79 | 1015.8 |
| 20260502060530 | 35 | 67 | 0.0 | 0.0 | 0.00 | 0.00 | 0.00 | 79 | 1015.8 |
| 20260502060028 | 35 | 67 | 0.0 | 0.0 | 0.00 | 0.00 | 0.00 | 79 | 1015.9 |
| 20260502055518 | 35 | 66 | 0.0 | 0.0 | 0.00 | 0.00 | 0.00 | 79 | 1015.9 |
| 20260502055050 | 36 | 67 | 0.0 | 0.0 | 0.00 | 0.00 | 0.00 | 79 | 1015.9 |
| 20260502053959 | 36 | 66 | 0.0 | 0.0 | 0.00 | 0.00 | 0.00 | 78 | 1016.0 |
| 20260502053454 | 36 | 66 | 0.0 | 0.0 | 0.00 | 0.00 | 0.00 | 77 | 1016.0 |
| 20260502052942 | 36 | 66 | 0.0 | 0.0 | 0.00 | 0.00 | 0.00 | 77 | 1015.9 |
| 20260502052441 | 37 | 65 | 0.0 | 0.0 | 0.00 | 0.00 | 0.00 | 77 | 1015.9 |
| 20260502051936 | 37 | 65 | 0.0 | 0.0 | 0.00 | 0.00 | 0.00 | 77 | 1016.0 |
| 20260502051651 | 37 | 65 | 0.0 | 0.0 | 0.00 | 0.00 | 0.00 | 77 | 1016.0 |
| 20260502050924 | 37 | 65 | 0.0 | 0.9 | 0.00 | 0.00 | 0.00 | 76 | 1016.0 |
| 20260502050419 | 37 | 65 | 0.0 | 0.9 | 0.00 | 0.00 | 0.00 | 76 | 1016.0 |
| 20260502045914 | 37 | 65 | 0.0 | 1.7 | 0.00 | 0.00 | 0.00 | 76 | 1016.0 |
| 20260502045408 | 38 | 65 | 0.0 | 2.6 | 0.00 | 0.00 | 0.00 | 76 | 1016.0 |
| 20260502045124 | 38 | 66 | 0.9 | 2.6 | 0.00 | 0.00 | 0.00 | 76 | 1015.9 |
| 20260502044401 | 38 | 59 | 0.9 | 4.3 | 0.00 | 0.00 | 0.00 | 76 | 1015.9 |
| 20260502043901 | 38 | 58 | 0.9 | 4.3 | 0.00 | 0.00 | 0.00 | 75 | 1015.9 |
| 20260502043400 | 38 | 55 | 0.9 | 4.3 | 0.00 | 0.00 | 0.00 | 76 | 1015.9 |
| 20260502042900 | 38 | 26 | 0.9 | 4.3 | 0.00 | 0.00 | 0.00 | 76 | 1015.9 |
| 20260502042402 | 38 | 49 | 0.9 | 3.5 | 0.00 | 0.00 | 0.00 | 75 | 1015.9 |
| 20260502041901 | 38 | 51 | 0.9 | 2.6 | 0.00 | 0.00 | 0.00 | 76 | 1016.0 |
| 20260502041401 | 38 | 36 | 0.9 | 2.6 | 0.00 | 0.00 | 0.00 | 76 | 1016.0 |
| 20260502040858 | 38 | 63 | 0.9 | 2.6 | 0.00 | 0.00 | 0.00 | 76 | 1016.0 |
| 20260502040356 | 37 | 63 | 0.9 | 2.6 | 0.00 | 0.00 | 0.00 | 76 | 1015.9 |
| 20260502035854 | 37 | 55 | 0.9 | 2.6 | 0.00 | 0.00 | 0.00 | 76 | 1015.9 |
| 20260502035352 | 37 | 53 | 0.9 | 2.6 | 0.00 | 0.00 | 0.00 | 75 | 1015.9 |
| 20260502034853 | 37 | 56 | 0.9 | 2.6 | 0.00 | 0.00 | 0.00 | 75 | 1015.7 |
| 20260502034353 | 37 | 48 | 0.9 | 2.6 | 0.00 | 0.00 | 0.00 | 76 | 1015.7 |
| 20260502033855 | 37 | 44 | 0.9 | 2.6 | 0.00 | 0.00 | 0.00 | 76 | 1015.7 |
| 20260502033356 | 37 | 59 | 0.9 | 2.6 | 0.00 | 0.00 | 0.00 | 76 | 1015.7 |
| 20260502032851 | 37 | 53 | 0.9 | 2.6 | 0.00 | 0.00 | 0.00 | 75 | 1015.7 |
| 20260502032338 | 37 | 62 | 0.9 | 3.5 | 0.00 | 0.00 | 0.00 | 75 | 1015.7 |
| 20260502031825 | 37 | 55 | 0.9 | 3.5 | 0.00 | 0.00 | 0.00 | 75 | 1015.7 |
| 20260502031315 | 37 | 54 | 0.9 | 2.6 | 0.00 | 0.00 | 0.00 | 75 | 1015.7 |
| 20260502030802 | 38 | 64 | 0.9 | 3.5 | 0.00 | 0.00 | 0.00 | 75 | 1015.7 |
| 20260502030250 | 38 | 49 | 1.7 | 3.5 | 0.00 | 0.00 | 0.00 | 74 | 1015.6 |
| 20260502025739 | 38 | 43 | 1.7 | 3.5 | 0.00 | 0.00 | 0.00 | 74 | 1015.6 |
| 20260502025227 | 38 | 44 | 1.7 | 4.3 | 0.00 | 0.00 | 0.00 | 74 | 1015.6 |
| 20260502024940 | 38 | 57 | 1.7 | 4.3 | 0.00 | 0.00 | 0.00 | 75 | 1015.5 |
| 20260502024205 | 38 | 40 | 1.7 | 4.3 | 0.00 | 0.00 | 0.00 | 75 | 1015.5 |
| 20260502024154 | 38 | 17 | 2.6 | 6.1 | 0.00 | 0.00 | 0.00 | 75 | 1015.5 |
| 20260502023159 | 38 | 55 | 2.6 | 6.1 | 0.00 | 0.00 | 0.00 | 75 | 1015.2 |
| 20260502022652 | 38 | 60 | 2.6 | 6.1 | 0.00 | 0.00 | 0.00 | 75 | 1015.2 |
| 20260502022405 | 38 | 74 | 2.6 | 6.1 | 0.00 | 0.00 | 0.00 | 75 | 1015.2 |